[[{"header":{"parameterUnit":"m.s-1","parameterCategory":1,"la1":30.2991,"la2":30.254,"lo1":-89.0895,"lo2":-89.0444,"dy":0.0017,"dx":0.0017,"nx":28,"ny":28,"refTime":"2025-07-09T21:00:00:Z","depth":0,"parameterNumber":2,"parameterNumberName":"U-component_of_WINDS"},"data":[0,0,0,0,0,0,0,0,0,0,0,0,0,0,0,0,0,0,0,0,0,0,0,0,0,0,0,0,0,0,0,0,0,0,0,0,0,0,0,0,0,0,0,0,0,0,0,0,0,0,0,0,0,0,0,0,0,0,4.3691,4.3693,0,4.3871,4.3873,4.3875,4.3815,4.3811,4.3807,4.3804,4.3992,4.4,4.4009,0,0,0,0,0,0,0,0,0,0,0,0,0,4.3299,4.3307,4.3691,4.3693,4.3696,4.387,4.3873,4.3875,4.3816,4.3811,4.3806,4.3802,4.3989,4.3999,4.401,0,0,0,0,0,0,0,0,0,0,0,0,0,4.3473,4.3309,4.3691,4.3687,4.3688,4.387,4.3873,4.3876,4.3817,4.3811,4.3805,4.38,4.3986,4.3998,4.4011,4.4208,0,0,4.4051,4.4056,0,0,0,0,0,0,0,0,4.3464,4.3488,4.3685,4.3688,4.3689,4.3815,4.3804,4.3988,4.3818,4.3768,4.3804,4.3797,4.3938,4.3954,4.4001,4.4217,4.4225,4.4052,4.406,4.4065,4.4069,0,0,0,0,0,0,0,4.3452,4.348,4.3762,4.3688,4.3691,4.3677,4.3695,4.3838,4.3884,4.3772,4.3768,4.379,4.3938,4.3989,4.4005,4.4228,4.4051,4.4063,4.4071,4.4076,4.4613,4.4619,0,0,0,0,0,0,4.3438,4.347,4.3757,4.3768,4.356,4.3689,4.3709,4.378,4.3882,4.3892,4.3795,4.3787,4.3969,4.399,4.4011,4.4248,4.4065,4.4077,4.4085,4.4607,4.4615,4.4622,0,0,0,0,0,0,4.343,4.3464,4.3749,4.3618,4.3653,4.3702,4.3782,4.3787,4.3838,4.3899,4.3907,4.3838,4.3966,4.3993,4.4159,4.4254,4.4083,4.4095,4.4599,4.4609,4.4618,4.4723,0,0,0,0,0,0,4.3419,4.3461,4.3537,4.362,4.366,4.3894,4.3788,4.3795,4.386,4.3851,4.3942,4.3952,4.3963,4.414,4.4172,4.4268,4.4105,4.4591,4.4604,4.4615,4.4712,4.4735,4.4756,0,0,0,0,0,4.3405,4.356,4.3541,4.3576,4.3755,4.3899,4.3922,4.3931,4.3868,4.3944,4.3983,4.3949,4.4238,4.4158,4.4193,4.4295,4.4585,4.46,4.4614,4.4702,4.4731,4.4755,0,0,0,0,0,0,4.3489,4.3571,4.355,4.3737,4.3811,4.3889,4.3985,4.3962,4.4057,4.4045,4.4053,4.4074,4.4244,4.4286,4.4195,4.449,4.4402,4.4425,4.4457,4.4485,4.4506,4.4493,4.4116,0,0,0,0,0,4.3528,4.3638,4.3704,4.3863,4.3901,4.3937,4.4,4.4,4.4078,4.4109,4.4161,4.4239,4.4347,4.4418,4.4521,4.4717,4.4736,4.4805,4.4827,4.4844,4.4864,4.4969,4.5,4.467,4.467,4.4669,0,0,4.3613,4.3671,4.374,4.3881,4.3939,4.4052,4.3964,4.4088,4.4172,4.4129,4.4288,4.4328,4.4416,4.4597,4.4679,4.4637,4.4959,4.4863,4.4877,4.4887,4.4987,4.5018,4.5046,4.468,4.4678,4.4676,0,0,4.3824,4.3879,4.4016,4.4075,4.4163,4.4185,4.4218,4.4299,4.4323,4.4483,4.4452,4.4553,4.4739,4.4802,4.4859,4.5091,4.5063,4.5125,4.524,4.5343,4.5369,4.5392,4.5474,4.5503,4.5144,4.5144,4.5144,0,4.3918,4.4086,4.409,4.4217,4.4279,4.4243,4.4382,4.4439,4.4557,4.4601,4.4551,4.4783,4.484,4.5034,4.5091,4.5138,4.5176,4.5115,4.5364,4.5388,4.5409,4.5488,4.5518,4.5151,4.515,4.5149,4.5149,0,4.4197,4.4314,4.4415,4.4526,4.46,4.4733,4.4757,4.4832,4.4825,4.4853,4.5015,4.5081,4.5196,4.5242,4.5238,4.5436,4.5407,4.5361,4.5273,4.5448,4.5521,4.5551,4.5161,4.5158,4.5156,4.5155,0,0,4.4467,4.4578,4.4615,4.4664,4.4757,4.4848,4.4978,4.5089,4.5152,4.5234,4.5343,4.55,4.5458,4.5522,4.5524,4.5614,4.5793,4.5557,4.5559,4.5598,4.6014,4.6047,4.6082,4.5774,4.578,4.5785,4.6006,0,4.4685,4.4912,4.4919,4.5127,4.5234,4.5201,4.5314,4.5383,4.5412,4.5509,4.5541,4.5652,4.5588,4.5626,4.5714,4.5752,4.5876,4.5737,4.5876,4.5881,4.5855,4.612,4.6157,4.6363,4.6035,4.604,4.6044,0,4.497,4.5058,4.5276,4.5351,4.5397,4.5499,4.5599,4.5692,4.577,4.5784,4.5855,4.5843,4.5976,4.5883,4.6066,4.5971,4.6029,4.6056,4.6064,4.6077,4.5973,4.614,4.6429,4.6459,4.6089,4.6086,4.6082,0,4.5144,4.5318,4.547,4.5513,4.5605,4.5677,4.5719,4.5791,4.5856,4.5945,4.5987,4.6091,4.6148,4.6229,4.6245,4.6176,4.6428,4.6337,4.6444,4.6444,4.6499,4.6495,4.68,4.6537,4.6537,4.6536,4.6536,0,4.5386,4.5521,4.5549,4.5643,4.5792,4.5798,4.5946,4.5983,4.6047,4.6147,4.6125,4.622,4.6236,4.6335,4.6349,4.6498,4.6525,4.654,4.6542,4.6542,4.654,4.6579,4.6565,4.6544,4.6543,4.6541,4.654,0,4.5606,4.563,4.5794,4.5866,4.5888,4.5995,4.6057,4.6147,4.6172,4.63,4.633,4.6371,4.6486,4.651,4.6648,4.6657,4.6833,4.6822,4.6806,4.6805,4.691,4.69,4.7251,4.7297,4.7005,4.7008,4.701,0,4.5759,4.5861,4.5944,4.6009,4.6053,4.6158,4.6224,4.6234,4.6304,4.6399,4.6477,4.6589,4.6679,4.6864,4.6907,4.7011,4.7001,4.7117,4.7017,4.7012,4.7002,4.6995,4.7005,4.7136,4.7139,4.7142,4.7144,0,4.6028,4.6034,4.6128,4.6228,4.6306,4.6385,4.646,4.6515,4.6535,4.6614,4.673,4.68,4.6938,4.7049,4.7153,4.7197,4.7174,4.7175,4.7205,4.7205,4.7192,4.7199,4.6858,4.7167,4.7165,4.7163,4.7162,4.7161,4.6218,4.6306,4.6378,4.6484,4.654,4.6611,4.6698,4.6733,4.683,4.6941,4.6942,4.7068,4.7142,4.7279,4.7329,4.7428,4.7392,4.7436,4.7447,4.7458,4.7466,4.7176,4.7447,4.7447,4.7446,4.7446,4.7445,0,4.6484,4.6528,4.6625,4.6729,4.6813,4.6782,4.6863,4.6935,4.7046,4.7116,4.7204,4.7336,4.7443,4.7494,4.7599,4.7669,4.7661,4.7697,4.7691,4.7702,4.7493,4.7456,4.7701,4.7701,4.7701,4.7701,4.7701,4.7701,4.6633,4.678,4.6794,4.6969,4.7012,4.7134,4.7183,4.7247,4.7303,4.7451,4.7539,4.757,4.7632,4.7742,4.7839,4.7851,4.7891,4.7931,4.7938,4.7743,4.7717,4.7692,4.7657,4.794,4.794,4.8137,4.8139,4.8141]},{"header":{"parameterUnit":"m.s-1","parameterCategory":1,"la1":30.2991,"la2":30.254,"lo1":-89.0895,"lo2":-89.0444,"dy":0.0017,"dx":0.0017,"nx":28,"ny":28,"refTime":"2025-07-09T21:00:00:Z","depth":0,"parameterNumber":3,"parameterNumberName":"V-component_of_WINDS"},"data":[0,0,0,0,0,0,0,0,0,0,0,0,0,0,0,0,0,0,0,0,0,0,0,0,0,0,0,0,0,0,0,0,0,0,0,0,0,0,0,0,0,0,0,0,0,0,0,0,0,0,0,0,0,0,0,0,0,0,-0.0562,-0.0563,0,-0.0637,-0.0637,-0.0638,-0.0679,-0.0679,-0.0679,-0.0679,-0.0757,-0.0759,-0.0761,0,0,0,0,0,0,0,0,0,0,0,0,0,-0.0456,-0.0458,-0.0562,-0.0563,-0.0564,-0.0636,-0.0637,-0.0639,-0.0679,-0.0679,-0.0679,-0.0679,-0.0756,-0.0759,-0.0761,0,0,0,0,0,0,0,0,0,0,0,0,0,-0.0514,-0.0458,-0.0562,-0.0593,-0.0596,-0.0636,-0.0638,-0.0639,-0.0679,-0.0679,-0.0679,-0.0679,-0.0756,-0.0759,-0.0762,-0.0777,0,0,-0.0771,-0.0772,0,0,0,0,0,0,0,0,-0.051,-0.0517,-0.0587,-0.059,-0.0594,-0.0649,-0.0629,-0.0685,-0.0679,-0.0647,-0.0679,-0.0679,-0.0721,-0.0727,-0.0741,-0.0781,-0.0784,-0.0771,-0.0773,-0.0774,-0.0775,0,0,0,0,0,0,0,-0.0506,-0.0514,-0.0591,-0.0588,-0.0593,-0.0603,-0.0612,-0.064,-0.0683,-0.065,-0.0653,-0.0662,-0.0723,-0.0738,-0.0743,-0.0785,-0.0771,-0.0773,-0.0775,-0.0776,-0.0844,-0.0844,0,0,0,0,0,0,-0.0497,-0.0511,-0.0589,-0.0594,-0.0552,-0.0605,-0.0615,-0.0631,-0.0682,-0.069,-0.0661,-0.0663,-0.0732,-0.0739,-0.0746,-0.0768,-0.0774,-0.0777,-0.0778,-0.0844,-0.0844,-0.0844,0,0,0,0,0,0,-0.0495,-0.0504,-0.0586,-0.0553,-0.0564,-0.0607,-0.0625,-0.0632,-0.0647,-0.0691,-0.0699,-0.0668,-0.0733,-0.0741,-0.0769,-0.0771,-0.0778,-0.0781,-0.0844,-0.0844,-0.0844,-0.0813,0,0,0,0,0,0,-0.0491,-0.0502,-0.0508,-0.0553,-0.0566,-0.0607,-0.0625,-0.0634,-0.0652,-0.0655,-0.0699,-0.0707,-0.0734,-0.0765,-0.0772,-0.0776,-0.0783,-0.0844,-0.0844,-0.0844,-0.0814,-0.0812,-0.081,0,0,0,0,0,-0.0487,-0.0496,-0.0508,-0.0517,-0.0574,-0.0607,-0.0615,-0.0645,-0.0652,-0.0658,-0.0687,-0.0705,-0.077,-0.0767,-0.0776,-0.078,-0.0844,-0.0844,-0.0844,-0.0815,-0.0812,-0.081,0,0,0,0,0,0,-0.0451,-0.0503,-0.0516,-0.054,-0.0569,-0.0614,-0.0623,-0.0641,-0.067,-0.0671,-0.0708,-0.0718,-0.0743,-0.0764,-0.076,-0.0799,-0.0809,-0.0811,-0.0784,-0.0782,-0.078,-0.0774,-0.0786,0,0,0,0,0,-0.0445,-0.0468,-0.0512,-0.0529,-0.0542,-0.058,-0.0596,-0.0617,-0.0649,-0.0661,-0.0692,-0.0722,-0.075,-0.0767,-0.0795,-0.0817,-0.0828,-0.0825,-0.0823,-0.0821,-0.0822,-0.0838,-0.0837,-0.0844,-0.0844,-0.0844,0,0,-0.0434,-0.0465,-0.0477,-0.0522,-0.0547,-0.057,-0.059,-0.0614,-0.0632,-0.0665,-0.0693,-0.0717,-0.0754,-0.0779,-0.0792,-0.0798,-0.0823,-0.0821,-0.0819,-0.0822,-0.0837,-0.0837,-0.0836,-0.0844,-0.0844,-0.0844,0,0,-0.0426,-0.0452,-0.0469,-0.0493,-0.0531,-0.0557,-0.0561,-0.0604,-0.0621,-0.065,-0.0676,-0.0698,-0.0744,-0.077,-0.0788,-0.0792,-0.0811,-0.08,-0.079,-0.0804,-0.0803,-0.0803,-0.0805,-0.0805,-0.0801,-0.0801,-0.0801,0,-0.0408,-0.0443,-0.0475,-0.0497,-0.0517,-0.0548,-0.0567,-0.0589,-0.0634,-0.0647,-0.0654,-0.0713,-0.074,-0.0773,-0.0774,-0.0788,-0.0795,-0.0795,-0.0801,-0.0801,-0.0801,-0.0804,-0.0804,-0.0799,-0.08,-0.08,-0.08,0,-0.0419,-0.0443,-0.0453,-0.0495,-0.0516,-0.0536,-0.0572,-0.0589,-0.0609,-0.0634,-0.0664,-0.0697,-0.0733,-0.0742,-0.0762,-0.0778,-0.0781,-0.0794,-0.0804,-0.0798,-0.0801,-0.0802,-0.0797,-0.0798,-0.0798,-0.0799,0,0,-0.0389,-0.045,-0.0453,-0.0473,-0.0518,-0.0537,-0.056,-0.0594,-0.0609,-0.0639,-0.0659,-0.0698,-0.0711,-0.0732,-0.0755,-0.0767,-0.0769,-0.0779,-0.078,-0.0776,-0.0791,-0.0782,-0.0782,-0.0782,-0.0782,-0.0783,-0.0788,0,-0.0387,-0.0428,-0.0458,-0.0487,-0.0511,-0.0542,-0.0562,-0.0592,-0.0616,-0.0641,-0.0668,-0.0695,-0.0709,-0.0723,-0.0736,-0.0766,-0.0773,-0.0766,-0.0802,-0.0803,-0.0792,-0.0783,-0.0773,-0.0777,-0.079,-0.079,-0.079,0,-0.039,-0.042,-0.0451,-0.0495,-0.0506,-0.0523,-0.0558,-0.058,-0.0616,-0.0633,-0.0658,-0.0681,-0.0708,-0.0716,-0.0753,-0.0748,-0.0765,-0.0782,-0.0783,-0.0787,-0.0796,-0.0788,-0.0779,-0.0779,-0.0792,-0.0792,-0.0792,0,-0.0366,-0.0413,-0.0439,-0.0455,-0.0506,-0.0518,-0.054,-0.0575,-0.0595,-0.0626,-0.0639,-0.0672,-0.0691,-0.0717,-0.075,-0.0753,-0.0784,-0.0795,-0.08,-0.0799,-0.0805,-0.0804,-0.0798,-0.0815,-0.0815,-0.0815,-0.0815,0,-0.0361,-0.0379,-0.0428,-0.0444,-0.0466,-0.0502,-0.0523,-0.0547,-0.0579,-0.0601,-0.063,-0.065,-0.0692,-0.0718,-0.0744,-0.0771,-0.0779,-0.0795,-0.0801,-0.0792,-0.079,-0.0803,-0.0804,-0.0815,-0.0815,-0.0815,-0.0815,0,-0.0337,-0.037,-0.04,-0.0447,-0.0459,-0.0473,-0.0513,-0.053,-0.0557,-0.0584,-0.0593,-0.0635,-0.0667,-0.0702,-0.0745,-0.0763,-0.0789,-0.0799,-0.0777,-0.0781,-0.0784,-0.0783,-0.0786,-0.0789,-0.0804,-0.0803,-0.0803,0,-0.0331,-0.0346,-0.0394,-0.0411,-0.0432,-0.0458,-0.0479,-0.0515,-0.0535,-0.0577,-0.0589,-0.0623,-0.0652,-0.0702,-0.0737,-0.0771,-0.0782,-0.0781,-0.0787,-0.0778,-0.0782,-0.0781,-0.0783,-0.0778,-0.0778,-0.0778,-0.0778,0,-0.0318,-0.0335,-0.0362,-0.0396,-0.0419,-0.0448,-0.0477,-0.049,-0.0532,-0.0553,-0.0586,-0.0608,-0.0653,-0.0687,-0.0726,-0.075,-0.0771,-0.0775,-0.0778,-0.0769,-0.0756,-0.0764,-0.0772,-0.0775,-0.0775,-0.0775,-0.0776,-0.0776,-0.0304,-0.0319,-0.0356,-0.0386,-0.0412,-0.044,-0.0458,-0.0487,-0.0515,-0.0554,-0.0574,-0.0607,-0.0644,-0.0698,-0.0722,-0.0749,-0.0755,-0.0759,-0.0761,-0.0761,-0.0759,-0.0752,-0.0756,-0.0756,-0.0756,-0.0756,-0.0756,0,-0.0293,-0.0318,-0.0346,-0.0387,-0.0411,-0.0429,-0.0463,-0.0482,-0.0511,-0.0543,-0.0571,-0.061,-0.0643,-0.0681,-0.0717,-0.0732,-0.0743,-0.074,-0.074,-0.0745,-0.075,-0.0744,-0.0731,-0.0731,-0.0731,-0.0731,-0.0731,-0.0731,-0.029,-0.0317,-0.0338,-0.0379,-0.0405,-0.0437,-0.0455,-0.0481,-0.0507,-0.0549,-0.0576,-0.0601,-0.0636,-0.0675,-0.0707,-0.0718,-0.073,-0.0725,-0.0738,-0.0742,-0.0744,-0.0746,-0.0741,-0.0727,-0.0727,-0.0731,-0.0731,-0.0731]}]]